PROITERES

Satellite information

Favourite Embed

Satellite Type and Status

PAYLOADIN ORBIT

Key statistics

Satellite PROITERES at a glance.

Uptime

4844

Days in orbit

Revolutions

≈ 14.8

Per day

Orbit

SSO

Sun Synchronous Orbit

Inclination

98.2

Latest

Satellite identification and parameters

Extended collection of information and parameters for PROITERES.

Object identification

Identified? True

Debris? False

Object name: PROITERES

International designator: 2012-047B

Object number (NORAD): 38756

Object ID (CCSDS): 38756

Country: JAPAN (JPN)

Current information (Y/N): Y

RCS size: SMALL

Orbital parameters

Period: 97.168 minutes

Inclination: 98.2354 deg

SMA: 7001.253 km

Apoapsis: 629.947 km

Periapsis: 616.289 km

RAAN: 257.6217 deg

Eccentricy: 0.0009754

Argument of periapsis: 302.4398 deg

Mean anomaly: 57.587 deg

Mean motion: 14.81968848 rev/day

Mean motion (dot): 0.00002317 rev/day2

B* drag term: 0.00029924845 1/REarth

Two-line elements (TLE)

Creation date: Dec. 12, 2025, 10:14 a.m.

Reference frame: TEME

Reference center: EARTH

Epoch: Dec. 12, 2025, 6:33 a.m. UTC

TLE line 0: 0 PROITERES

TLE line 1: 1 38756U 12047B 25346.27347410 .00002317 00000-0 29925-3 0 9994

TLE line 2: 2 38756 98.2354 257.6217 0009754 302.4398 57.5870 14.81968848714625

Live tracking on map

Real-time ground track for satellite PROITERES.

In-orbit conjunctions

There are no conjunctions computed for PROITERES, at the moment. Check back to stay up to date, as we update our databases every day.

Go to all conjunctions

Associated space launch

PROITERES was lifted into orbit during the mission ‘PSLV-CA | SPOT 6 & PROITERES’, on board a PSLV space rocket.

The launch took place on Sept. 9, 2012, 4:23 a.m. from Satish Dhawan Space Centre First Launch Pad.

For more information about the launch, click the button.

Launch to space PSLV-CA | SPOT 6 & PROITERES
PSLV-CA | SPOT 6 & PROITERES

Agency: N/A

Status: Launch Successful

Launch date: Sept. 9, 2012, 4:23 a.m. UTC

Rocket: PSLV

Launch pad: Satish Dhawan Space Centre First Launch Pad

Location: Satish Dhawan Space Centre, India

...

Latest news about this satellite

There are no fresh news available about this satellite. Check back as we update our databases every day.


Newsletter sign-up

Weekly statistics, charts and insights to help you stay on top of the space industry.